#timestamp,LO_Frequency,Hit,StdDev 
1639814415.2,286047001.5,N
1639814435.1,286047002.4,N
1639814436.0,286047002.4,Y
1639814455.8,286046999.4,P
1639814475.7,286046997.3,N
1639814495.5,286046994.9,N
1639814515.3,286046997.1,N
1639814535.2,286046998.2,N
1639814555.0,286046997.6,N
1639814555.9,286046997.6,N
1639814575.8,286046996.7,N
1639814595.6,286046997.2,N
1639814615.4,286046997.9,N
1639814635.3,286046995.0,Y
1639814655.1,286046999.5,P
1639814675.9,286046996.7,P
1639814695.7,286046996.7,N
1639814715.5,286046997.0,N
1639814735.4,286046996.6,Y
1639814755.2,286047000.0,P
1639814775.1,286046999.7,N
1639814776.0,286046999.7,N
1639814795.8,286047000.1,N
1639814815.6,286047002.2,N
1639814835.5,286047002.1,N
1639814855.3,286046999.8,N
1639814875.2,286047002.3,N
1639814895.9,286047002.4,N
1639814915.7,286047002.0,N
1639814935.6,286047001.5,N
1639814955.4,286047002.2,N
1639814975.3,286047002.6,N
1639814995.1,286047001.9,N
1639814996.0,286047001.9,N
1639815015.8,286047002.8,N
1639815035.7,286047001.7,N
1639815055.5,286047002.7,N
1639815075.3,286046999.8,N
1639815095.2,286047002.5,N
1639815115.0,286047000.1,N
1639815115.9,286047000.1,N
1639815135.8,286046998.1,N
1639815155.6,286047001.2,N
1639815175.5,286047001.2,N
1639815195.3,286047000.7,N
1639815215.1,286046999.8,N
1639815235.9,286046999.7,N
1639815255.7,286047002.6,N
1639815275.6,286047002.5,N
1639815295.4,286047001.9,N
1639815315.2,286047002.3,N
1639815335.1,286046999.7,N
1639815336.0,286046999.7,N
1639815355.8,286046998.5,N
1639815375.6,286046999.5,N
1639815395.5,286046997.2,N
1639815415.3,286046998.3,N
1639815435.2,286046997.2,N
1639815455.0,286046999.1,N
1639815455.9,286046999.1,N
1639815475.8,286046998.7,N
1639815495.6,286046998.1,N
1639815515.5,286046998.2,N
1639815535.3,286047000.8,N
1639815555.1,286046996.8,N
1639815575.9,286046997.1,N
1639815595.7,286046997.2,N
1639815615.5,286046997.7,N
1639815635.4,286046997.4,N
1639815655.2,286046994.9,Y
1639815675.1,286046997.8,P
1639815676.0,286046997.8,N
1639815695.8,286046999.5,N
1639815715.6,286046996.5,Y
1639815735.5,286046998.6,P
1639815755.3,286047001.1,P
1639815775.2,286046998.5,N
1639815795.9,286047001.1,N
1639815815.7,286047001.0,N
1639815835.6,286046999.8,N
1639815855.4,286047002.5,N
1639815875.3,286047000.2,N
1639815895.1,286046999.7,N
1639815896.0,286046999.7,N
1639815915.8,286047002.2,N
1639815935.7,286046999.9,N
1639815955.5,286047000.7,N
1639815975.3,286047001.1,N
1639815995.2,286046999.2,N
1639816015.0,286047000.7,N
1639816015.9,286047000.7,N
1639816035.8,286046998.3,N
1639816055.6,286046998.4,N
1639816075.4,286046998.2,N
1639816095.3,286046999.3,N
1639816115.1,286046999.1,N
1639816135.9,286046996.5,N
1639816155.7,286046999.6,N
1639816175.5,286047001.1,N
1639816195.4,286046998.9,N
1639816215.2,286046997.3,N
1639816235.0,286046997.8,N
1639816235.9,286046997.8,N
1639816255.8,286046996.9,N
1639816275.6,286046999.2,N
1639816295.5,286046996.9,N
1639816315.3,286046999.3,N
1639816335.1,286046998.9,N
1639816355.9,286046997.3,N
1639816375.7,286046997.0,N
1639816395.5,286046997.0,N
1639816415.4,286046996.9,N
1639816435.2,286046999.5,N
1639816455.1,286046997.0,N
1639816456.0,286046997.0,N
1639816475.8,286046997.1,N
1639816495.6,286046996.7,N
1639816515.5,286046997.4,N
1639816535.3,286046997.0,N
1639816555.1,286046997.0,N
1639816575.9,286046996.7,N
1639816595.7,286046997.7,N
1639816615.6,286046996.5,Y
1639816635.4,286047000.8,P
1639816655.3,286046998.6,N
1639816675.1,286046998.7,N
1639816695.8,286046999.1,N
1639816715.7,286046999.1,N
1639816735.5,286046998.5,N
1639816755.4,286046999.2,N
1639816775.2,286046997.3,Y
1639816795.0,286046997.6,P
1639816795.9,286046997.6,P
1639816815.8,286046997.0,P
1639816835.6,286046997.2,Y
1639816855.5,286047002.7,P
1639816875.3,286047002.7,N
1639816895.1,286047002.3,N
1639816915.9,286047001.8,N
1639816935.7,286047000.3,N
1639816955.2,286046998.6,N
1639816975.1,286046998.2,N
1639816976.0,286046998.2,N
1639816995.8,286047000.4,N
1639817015.6,286047001.1,N
1639817035.5,286047000.3,N
1639817055.3,286047000.5,N
1639817075.2,286047002.3,N
1639817095.9,286047000.7,N
1639817115.7,286047001.0,N
1639817135.6,286047000.2,N
1639817155.4,286047000.7,N
1639817175.3,286046998.5,N
1639817195.1,286047000.6,N
1639817196.0,286047000.6,N
1639817215.8,286047001.6,N
1639817235.7,286047002.8,N
1639817255.5,286047002.6,N
1639817275.3,286047000.4,N
1639817295.2,286047002.7,N
1639817315.0,286047001.6,N
1639817315.9,286047001.6,N
1639817335.8,286047001.5,N
1639817355.6,286047001.9,N
1639817375.4,286047000.3,N
1639817395.3,286047000.8,N
1639817415.1,286046998.9,N
1639817435.9,286046996.6,N
1639817455.7,286046997.3,N
1639817475.6,286046999.5,N
1639817495.4,286046998.9,N
1639817515.2,286046999.6,N
1639817535.1,286046998.7,N
1639817536.0,286046998.7,N
1639817555.8,286046999.1,N
1639817575.6,286046996.9,N
1639817595.5,286046999.1,N
1639817615.3,286046999.2,N
1639817635.2,286046998.8,N
1639817655.9,286046998.9,N
1639817675.7,286046999.1,N
1639817695.6,286046998.3,N
1639817715.4,286047000.7,N
1639817735.2,286046998.8,N
1639817755.1,286046998.1,N
1639817756.0,286046998.1,N
1639817775.8,286046999.1,N
1639817795.7,286046999.5,N
1639817815.5,286046998.5,N
1639817835.3,286046998.2,N
1639817855.2,286046998.4,N
1639817875.0,286046999.0,N
1639817875.9,286046999.0,N
1639817895.8,286046997.1,N
1639817915.6,286046997.6,N
1639817935.4,286046995.0,Y
1639817955.3,286046996.5,P
1639817975.1,286046999.0,N
1639817995.8,286046999.2,N
